DW3282 Weather Reports


time (UTC)temp
C
wind
direction
speed
KPH
gust
KPH
rain 1hr
cm
rain 24hr
cm
rain mn
cm
humidity
%
barometer
mb
20190424114650 22 46 3.2 8.0 0.00 0.00 0.00 44 1000.0
20190424113128 22 184 3.2 8.0 0.00 0.00 0.00 45 1000.2
20190424111711 22 113 1.6 9.7 0.00 0.00 0.00 47 1000.3
20190424110037 21 82 0.0 11.3 0.00 0.00 0.00 52 1000.5
20190424104521 21 117 3.2 9.7 0.00 0.00 0.00 49 1000.8
20190424103045 21 105 3.2 8.0 0.00 0.00 0.00 51 1001.0
20190424101529 20 76 4.8 11.3 0.00 0.00 0.00 52 1001.1
20190424100029 20 60 0.0 4.8 0.00 0.00 0.00 56 1001.2
20190424094547 18 250 1.6 4.8 0.00 0.00 0.00 59 1001.4
20190424093018 18 176 0.0 4.8 0.00 0.00 0.00 61 1001.6
20190424090026 18 164 1.6 4.8 0.00 0.00 0.00 58 1001.6
20190424084522 18 205 0.0 4.8 0.00 0.00 0.00 55 1001.3
20190424083013 18 51 1.6 6.4 0.00 0.00 0.00 57 1001.2
20190424081513 17 59 1.6 4.8 0.00 0.00 0.00 59 1001.0
20190424080020 17 9 0.0 4.8 0.00 0.00 0.00 60 1001.0
20190424074734 16 135 0.0 8.0 0.00 0.00 0.00 63 1000.8
20190424073139 16 113 3.2 12.9 0.00 0.00 0.00 66 1000.2
20190424071652 16 106 1.6 12.9 0.00 0.00 0.00 66 1000.2
20190424064713 14 189 0.0 3.2 0.00 0.00 0.00 77 1000.2
20190424063236 13 184 0.0 3.2 0.00 0.00 0.00 78 1000.0
20190424061633 13 59 0.0 3.2 0.00 0.00 0.00 79 999.7
20190424060017 12 225 0.0 3.2 0.00 0.00 0.00 83 999.9
20190424054511 11 225 0.0 4.8 0.00 0.00 0.00 85 999.8
20190424053010 11 223 1.6 4.8 0.00 0.00 0.00 86 999.8
20190424051511 11 232 0.0 4.8 0.00 0.00 0.00 86 999.4
20190424050013 11 261 0.0 3.2 0.00 0.00 0.00 85 999.2
20190424044508 11 269 0.0 0.0 0.00 0.00 0.00 84 999.0
20190424043013 11 274 0.0 0.0 0.00 0.00 0.00 83 998.7
20190424041657 11 275 0.0 0.0 0.00 0.00 0.00 83 998.6
20190424040234 11 275 0.0 0.0 0.00 0.00 0.00 83 998.5
20190424034715 11 275 0.0 0.0 0.00 0.00 0.00 83 998.3
20190424033116 11 275 0.0 0.0 0.00 0.00 0.00 82 998.4
20190424031632 11 275 0.0 0.0 0.00 0.00 0.00 82 998.2
20190424030047 11 275 0.0 0.0 0.00 0.00 0.00 82 998.2
20190424024515 11 275 0.0 0.0 0.00 0.00 0.00 81 998.1
20190424023034 12 275 0.0 0.0 0.00 0.00 0.00 81 998.0
20190424021523 12 275 0.0 0.0 0.00 0.00 0.00 80 998.0
20190424020010 12 275 0.0 0.0 0.00 0.00 0.00 79 997.8
20190424014510 12 280 0.0 0.0 0.00 0.00 0.00 79 997.5
20190424013007 12 280 0.0 0.0 0.00 0.00 0.00 78 997.5
20190424011503 12 280 0.0 0.0 0.00 0.00 0.00 77 997.4
20190424010031 12 280 0.0 0.0 0.00 0.00 0.00 77 997.4
20190424003120 13 282 0.0 0.0 0.00 0.00 0.00 74 997.2
20190424001732 13 282 0.0 0.0 0.00 0.00 0.00 73 997.1
20190424000017 13 281 0.0 0.0 0.00 0.00 0.00 73 997.0
20190423234524 13 281 0.0 0.0 0.00 0.00 0.00 72 997.0
20190423233011 14 281 0.0 1.6 0.00 0.00 0.00 72 997.0
20190423231532 14 336 0.0 0.0 0.00 0.00 0.00 71 997.0
20190423230010 15 336 0.0 0.0 0.00 0.00 0.00 71 996.9
20190423224752 15 336 0.0 3.2 0.00 0.00 0.00 70 996.9
20190423223242 15 304 0.0 3.2 0.00 0.00 0.00 69 996.9
20190423221714 15 239 0.0 1.6 0.00 0.00 0.00 69 997.0
20190423220159 15 239 0.0 0.0 0.00 0.00 0.00 68 996.8
20190423214628 15 290 0.0 0.0 0.00 0.00 0.00 67 996.8
20190423213201 15 290 0.0 0.0 0.00 0.00 0.00 65 996.9
20190423211640 15 290 0.0 0.0 0.00 0.00 0.00 65 996.8
20190423204637 16 290 0.0 1.6 0.00 0.00 0.00 64 996.8
20190423203206 16 290 0.0 0.0 0.00 0.00 0.00 63 996.8
20190423201721 16 290 0.0 0.0 0.00 0.00 0.00 62 996.7
20190423200124 16 290 0.0 3.2 0.00 0.00 0.00 62 996.6
20190423194701 17 287 0.0 0.0 0.00 0.00 0.00 62 996.6
20190423193119 17 292 0.0 0.0 0.00 0.00 0.00 60 996.4
20190423191611 17 327 0.0 4.8 0.00 0.00 0.00 59 996.4
20190423190038 17 316 1.6 4.8 0.00 0.00 0.00 57 996.2
20190423184520 18 317 1.6 3.2 0.00 0.00 0.00 56 996.0
20190423183017 19 327 0.0 1.6 0.00 0.00 0.00 55 995.8
20190423181529 20 325 1.6 4.8 0.00 0.00 0.00 53 995.7
20190423180003 20 355 0.0 3.2 0.00 0.00 0.00 47 995.7
20190423174510 20 211 0.0 0.0 0.00 0.00 0.00 46 995.7
20190423173011 20 213 0.0 1.6 0.00 0.00 0.00 46 995.8
20190423171511 20 183 0.0 4.8 0.00 0.00 0.00 46 995.8
20190423170117 20 199 0.0 3.2 0.00 0.00 0.00 46 995.8
20190423164642 21 225 0.0 4.8 0.00 0.00 0.00 46 995.9
20190423163236 21 65 0.0 4.8 0.00 0.00 0.00 45 995.7
20190423161659 21 172 0.0 4.8 0.00 0.00 0.00 46 995.8
20190423160124 20 202 0.0 6.4 0.00 0.00 0.00 46 995.9
20190423154651 20 192 0.0 6.4 0.00 0.00 0.00 46 995.9
20190423153115 21 215 0.0 6.4 0.00 0.00 0.00 45 996.0
20190423151710 21 98 0.0 8.0 0.00 0.00 0.00 45 996.0
20190423150014 21 150 3.2 12.9 0.00 0.00 0.00 44 996.1
20190423144517 21 167 4.8 17.7 0.00 0.00 0.00 43 996.0
20190423143013 21 62 1.6 12.9 0.00 0.00 0.00 43 996.0
20190423141514 21 101 1.6 11.3 0.00 0.00 0.00 43 996.1
20190423140005 21 302 3.2 11.3 0.00 0.00 0.00 43 996.2
20190423134507 21 65 4.8 14.5 0.00 0.00 0.00 42 996.2
20190423133004 21 109 3.2 14.5 0.00 0.00 0.00 43 996.2
20190423131739 21 75 3.2 19.3 0.00 0.00 0.00 42 996.2
20190423131503 21 79 3.2 19.3 0.00 0.00 0.00 42 996.3
20190423130004 21 53 4.8 19.3 0.00 0.00 0.00 41 996.4
20190423124714 21 99 8.0 17.7 0.00 0.00 0.00 41 996.6
20190423123144 21 110 8.0 17.7 0.00 0.00 0.00 42 996.7
20190423121636 21 104 3.2 11.3 0.00 0.00 0.00 42 996.6
20190423120151 20 57 6.4 14.5 0.00 0.00 0.00 42 996.6